timestamp,wind_dir_avg,wind_spd_avg,wind_spd_max_dir,wind_spd_gust,battery_voltage,lat,long
2023-05-17 00:04:00+00:00,205.0,7.71,210.0,8.26,12.89,47.59359,-54.27349
2023-05-17 00:14:00+00:00,211.0,7.17,212.0,7.94,12.41,47.59359,-54.27349
2023-05-17 00:24:00+00:00,211.0,9.04,213.0,9.9,12.41,47.59359,-54.27349
2023-05-17 00:34:00+00:00,205.0,7.07,203.0,7.69,12.41,47.59359,-54.27349
2023-05-17 00:44:00+00:00,207.0,7.76,209.0,9.14,12.41,47.59359,-54.27349
2023-05-17 00:54:00+00:00,211.0,9.61,211.0,11.26,12.41,47.59359,-54.27349
2023-05-17 01:04:00+00:00,215.0,8.5,213.0,9.28,12.41,47.59359,-54.27349
2023-05-17 01:14:00+00:00,214.0,7.85,213.0,9.2,12.33,47.59359,-54.27349
2023-05-17 01:24:00+00:00,211.0,8.13,219.0,8.91,12.33,47.59359,-54.27349
2023-05-17 01:34:00+00:00,210.0,8.83,213.0,9.96,12.33,47.59359,-54.27349
2023-05-17 01:44:00+00:00,202.0,7.74,209.0,9.03,12.33,47.59359,-54.27349
2023-05-17 01:54:00+00:00,207.0,7.79,212.0,8.96,12.33,47.59359,-54.27349
2023-05-17 02:04:00+00:00,212.0,7.42,210.0,8.55,12.33,47.59359,-54.27349
2023-05-17 02:14:00+00:00,214.0,6.51,214.0,7.19,12.33,47.59359,-54.27349
2023-05-17 02:24:00+00:00,212.0,7.37,215.0,8.34,12.33,47.59359,-54.27349
2023-05-17 02:34:00+00:00,207.0,8.39,211.0,9.13,12.33,47.59359,-54.27349
2023-05-17 02:44:00+00:00,212.0,7.4,210.0,8.44,12.33,47.59359,-54.27349
2023-05-17 02:54:00+00:00,216.0,7.29,217.0,8.34,12.33,47.59359,-54.27349
2023-05-17 03:04:00+00:00,209.0,6.66,213.0,7.4,12.33,47.59359,-54.27349
2023-05-17 03:14:00+00:00,210.0,8.0,211.0,9.12,12.33,47.59359,-54.27349
2023-05-17 03:24:00+00:00,217.0,7.92,219.0,8.67,12.33,47.59359,-54.27349
2023-05-17 03:34:00+00:00,220.0,6.41,218.0,7.12,12.33,47.59359,-54.27349
2023-05-17 03:44:00+00:00,213.0,7.42,214.0,8.68,12.33,47.59359,-54.27349
2023-05-17 03:54:00+00:00,219.0,6.71,222.0,8.0,12.33,47.59359,-54.27349
2023-05-17 04:04:00+00:00,219.0,7.68,221.0,8.74,12.33,47.59359,-54.27349
2023-05-17 04:14:00+00:00,217.0,7.98,214.0,9.24,12.25,47.59359,-54.27349
2023-05-17 04:24:00+00:00,214.0,8.56,215.0,9.5,12.25,47.59359,-54.27349
2023-05-17 04:34:00+00:00,217.0,9.41,217.0,11.4,12.25,47.59359,-54.27349
2023-05-17 04:44:00+00:00,216.0,9.45,214.0,10.88,12.25,47.59359,-54.27349
2023-05-17 04:54:00+00:00,212.0,9.76,209.0,12.87,12.25,47.59359,-54.27349
2023-05-17 05:04:00+00:00,211.0,9.4,213.0,10.78,12.25,47.59359,-54.27349
2023-05-17 05:14:00+00:00,209.0,9.55,213.0,10.72,12.25,47.59359,-54.27349
2023-05-17 05:24:00+00:00,206.0,8.56,207.0,9.44,12.25,47.59359,-54.27349
2023-05-17 05:34:00+00:00,204.0,8.96,199.0,11.27,12.25,47.59359,-54.27349
2023-05-17 05:44:00+00:00,211.0,8.3,214.0,8.99,12.25,47.59359,-54.27349
2023-05-17 05:54:00+00:00,210.0,7.12,206.0,8.04,12.25,47.59359,-54.27349
2023-05-17 06:04:00+00:00,207.0,4.68,211.0,5.76,12.25,47.59359,-54.27349
2023-05-17 06:14:01+00:00,188.0,5.81,189.0,6.52,12.17,47.59359,-54.27349
2023-05-17 06:24:01+00:00,185.0,6.01,186.0,6.36,12.17,47.59359,-54.27349
2023-05-17 06:34:01+00:00,184.0,4.64,183.0,4.93,12.17,47.59359,-54.27349
2023-05-17 06:44:01+00:00,187.0,4.56,190.0,4.86,12.17,47.59359,-54.27349
2023-05-17 06:54:01+00:00,210.0,5.47,210.0,5.69,12.17,47.59359,-54.27349
2023-05-17 07:04:01+00:00,213.0,3.53,222.0,4.11,12.17,47.59359,-54.27349
2023-05-17 07:14:01+00:00,217.0,4.51,220.0,5.6,12.17,47.59359,-54.27349
2023-05-17 07:24:01+00:00,210.0,4.81,212.0,5.22,12.17,47.59359,-54.27349
2023-05-17 07:34:01+00:00,216.0,5.27,218.0,6.08,12.17,47.59359,-54.27349
2023-05-17 07:44:01+00:00,204.0,3.55,203.0,3.94,12.17,47.59359,-54.27349
2023-05-17 07:54:01+00:00,194.0,4.09,195.0,4.49,12.17,47.59359,-54.27349
2023-05-17 08:04:01+00:00,198.0,5.55,199.0,6.1,12.17,47.59359,-54.27349
2023-05-17 08:14:00+00:00,215.0,6.13,214.0,6.66,12.17,47.59359,-54.27349
2023-05-17 08:24:00+00:00,217.0,6.4,218.0,7.06,12.17,47.59359,-54.27349
2023-05-17 08:34:00+00:00,210.0,6.86,211.0,7.52,12.17,47.59359,-54.27349
2023-05-17 08:44:00+00:00,212.0,5.92,213.0,6.64,12.17,47.59359,-54.27349
2023-05-17 08:54:00+00:00,207.0,6.68,206.0,7.54,12.17,47.59359,-54.27349
2023-05-17 09:04:00+00:00,197.0,7.8,192.0,8.89,12.17,47.59359,-54.27349
2023-05-17 09:14:00+00:00,206.0,7.72,207.0,9.74,12.09,47.59359,-54.27349
2023-05-17 09:24:00+00:00,208.0,8.46,204.0,9.73,12.09,47.59359,-54.27349
2023-05-17 09:34:00+00:00,207.0,9.44,208.0,10.17,12.09,47.59359,-54.27349
2023-05-17 09:44:00+00:00,211.0,9.88,218.0,11.21,12.09,47.59359,-54.27349
2023-05-17 09:54:00+00:00,212.0,10.89,212.0,12.93,12.09,47.59359,-54.27349
2023-05-17 10:04:00+00:00,216.0,10.3,216.0,11.36,12.09,47.59359,-54.27349
2023-05-17 10:14:00+00:00,211.0,10.83,216.0,12.08,12.25,47.59359,-54.27349
2023-05-17 10:24:00+00:00,213.0,11.67,212.0,13.01,12.25,47.59359,-54.27349
2023-05-17 10:34:00+00:00,214.0,10.83,218.0,12.64,12.25,47.59359,-54.27349
2023-05-17 10:44:00+00:00,213.0,11.04,212.0,12.48,12.25,47.59359,-54.27349
2023-05-17 10:54:00+00:00,216.0,10.52,214.0,11.86,12.25,47.59359,-54.27349
2023-05-17 11:04:00+00:00,219.0,10.82,218.0,12.33,12.25,47.59359,-54.27349
2023-05-17 11:14:00+00:00,214.0,11.86,211.0,13.5,13.29,47.59359,-54.27349
2023-05-17 11:24:00+00:00,216.0,10.46,208.0,12.51,13.29,47.59359,-54.27349
2023-05-17 11:34:00+00:00,214.0,9.58,216.0,10.46,13.29,47.59359,-54.27349
2023-05-17 11:44:00+00:00,214.0,11.24,216.0,12.74,13.29,47.59359,-54.27349
2023-05-17 11:54:00+00:00,216.0,10.08,215.0,11.53,13.29,47.59359,-54.27349
2023-05-17 12:04:00+00:00,215.0,9.92,213.0,11.26,13.29,47.59359,-54.27349
2023-05-17 12:14:00+00:00,217.0,8.49,212.0,10.38,13.44,47.59359,-54.27349
2023-05-17 12:24:00+00:00,212.0,9.08,217.0,10.65,13.44,47.59359,-54.27349
2023-05-17 12:34:00+00:00,211.0,10.44,209.0,12.04,13.44,47.59359,-54.27349
2023-05-17 12:44:00+00:00,211.0,9.79,211.0,11.71,13.44,47.59359,-54.27349
2023-05-17 12:54:00+00:00,207.0,10.55,209.0,12.81,13.44,47.59359,-54.27349
2023-05-17 13:04:00+00:00,207.0,10.12,208.0,11.42,13.44,47.59359,-54.27349
2023-05-17 13:14:00+00:00,202.0,10.18,202.0,11.29,13.6,47.59359,-54.27349
2023-05-17 13:24:00+00:00,207.0,9.27,206.0,10.13,13.6,47.59359,-54.27349
2023-05-17 13:34:00+00:00,208.0,8.75,212.0,9.61,13.6,47.59359,-54.27349
2023-05-17 13:44:00+00:00,209.0,8.71,208.0,10.2,13.6,47.59359,-54.27349
2023-05-17 13:54:00+00:00,213.0,10.35,214.0,11.5,13.6,47.59359,-54.27349
2023-05-17 14:04:00+00:00,203.0,11.8,201.0,13.07,13.6,47.59359,-54.27349
2023-05-17 14:14:00+00:00,202.0,10.96,207.0,12.57,13.6,47.59359,-54.27349
2023-05-17 14:24:00+00:00,208.0,10.55,206.0,12.18,13.6,47.59359,-54.27349
2023-05-17 14:34:00+00:00,214.0,9.8,211.0,11.3,13.6,47.59359,-54.27349
2023-05-17 14:44:00+00:00,213.0,9.82,216.0,11.36,13.6,47.59359,-54.27349
2023-05-17 14:54:00+00:00,217.0,7.65,221.0,8.33,13.6,47.59359,-54.27349
2023-05-17 15:04:00+00:00,212.0,8.78,214.0,10.07,13.6,47.59359,-54.27349
2023-05-17 15:14:00+00:00,217.0,6.4,218.0,9.42,13.68,47.59359,-54.27349
2023-05-17 15:24:00+00:00,215.0,8.87,219.0,10.93,13.68,47.59359,-54.27349
2023-05-17 15:34:00+00:00,218.0,7.98,209.0,9.58,13.68,47.59359,-54.27349
2023-05-17 15:44:00+00:00,212.0,9.52,217.0,10.89,13.68,47.59359,-54.27349
2023-05-17 15:54:00+00:00,223.0,7.89,231.0,9.55,13.68,47.59359,-54.27349
2023-05-17 16:04:00+00:00,218.0,7.79,221.0,8.94,13.68,47.59359,-54.27349
2023-05-17 16:14:00+00:00,211.0,8.2,213.0,9.58,13.68,47.59359,-54.27349
2023-05-17 16:24:00+00:00,215.0,9.41,214.0,11.41,13.68,47.59359,-54.27349
2023-05-17 16:34:00+00:00,212.0,10.91,212.0,12.61,13.68,47.59359,-54.27349
2023-05-17 16:44:00+00:00,212.0,10.05,213.0,11.41,13.68,47.59359,-54.27349
2023-05-17 16:54:00+00:00,213.0,10.57,203.0,11.36,13.68,47.59359,-54.27349
2023-05-17 17:04:00+00:00,213.0,9.76,212.0,10.68,13.68,47.59359,-54.27349
2023-05-17 18:14:00+00:00,209.0,9.28,206.0,10.46,13.68,47.59359,-54.27349
2023-05-17 18:24:00+00:00,213.0,10.02,207.0,10.98,13.68,47.59359,-54.27349
2023-05-17 18:34:00+00:00,217.0,8.83,216.0,11.18,13.68,47.59359,-54.27349
2023-05-17 18:44:00+00:00,222.0,7.89,210.0,9.48,13.68,47.59359,-54.27349
2023-05-17 18:54:00+00:00,209.0,8.58,209.0,9.99,13.68,47.59359,-54.27349
2023-05-17 19:04:00+00:00,211.0,8.16,210.0,9.46,13.68,47.59359,-54.27349
2023-05-17 19:14:00+00:00,211.0,8.17,213.0,9.26,13.53,47.59359,-54.27349
2023-05-17 19:24:00+00:00,204.0,9.24,209.0,10.44,13.53,47.59359,-54.27349
2023-05-17 19:34:00+00:00,207.0,10.4,203.0,12.27,13.53,47.59359,-54.27349
2023-05-17 19:44:00+00:00,198.0,11.96,199.0,13.41,13.53,47.59359,-54.27349
2023-05-17 19:54:00+00:00,209.0,9.56,206.0,10.77,13.53,47.59359,-54.27349
2023-05-17 20:04:00+00:00,215.0,9.17,219.0,10.7,13.53,47.59359,-54.27349
2023-05-17 20:14:00+00:00,211.0,10.69,215.0,12.55,13.44,47.59359,-54.27349
2023-05-17 20:24:00+00:00,214.0,9.97,218.0,11.51,13.44,47.59359,-54.27349
2023-05-17 20:34:00+00:00,216.0,9.85,216.0,11.75,13.44,47.59359,-54.27349
2023-05-17 20:44:00+00:00,222.0,7.91,223.0,9.28,13.44,47.59359,-54.27349
2023-05-17 20:54:00+00:00,214.0,10.23,215.0,12.74,13.44,47.59359,-54.27349
2023-05-17 21:04:00+00:00,216.0,10.12,224.0,12.89,13.44,47.59359,-54.27349
2023-05-17 21:14:00+00:00,207.0,9.4,220.0,11.34,13.21,47.59359,-54.27349
2023-05-17 21:24:00+00:00,202.0,9.2,220.0,11.54,13.21,47.59359,-54.27349
2023-05-17 21:34:00+00:00,215.0,7.32,219.0,8.75,13.21,47.59359,-54.27349
2023-05-17 21:44:00+00:00,223.0,7.49,229.0,9.7,13.21,47.59359,-54.27349
2023-05-17 21:54:00+00:00,218.0,6.77,228.0,9.5,13.21,47.59359,-54.27349
2023-05-17 22:04:00+00:00,212.0,5.87,223.0,6.94,13.21,47.59359,-54.27349
2023-05-17 22:14:00+00:00,211.0,5.9,227.0,9.69,12.89,47.59359,-54.27349
2023-05-17 22:24:00+00:00,225.0,7.81,230.0,10.35,12.89,47.59359,-54.27349
2023-05-17 22:34:00+00:00,208.0,5.89,236.0,8.76,12.89,47.59359,-54.27349
2023-05-17 22:44:00+00:00,202.0,6.25,222.0,7.53,12.89,47.59359,-54.27349
2023-05-17 22:54:00+00:00,201.0,7.04,195.0,7.89,12.89,47.59359,-54.27349
2023-05-17 23:04:00+00:00,200.0,7.03,209.0,8.05,12.89,47.59359,-54.27349
2023-05-17 23:14:00+00:00,198.0,7.23,193.0,8.19,12.41,47.59359,-54.27349
2023-05-17 23:24:00+00:00,203.0,7.11,208.0,8.48,12.41,47.59359,-54.27349
2023-05-17 23:34:00+00:00,196.0,8.86,192.0,10.46,12.41,47.59359,-54.27349
2023-05-17 23:44:00+00:00,196.0,7.42,193.0,8.51,12.41,47.59359,-54.27349
2023-05-17 23:54:00+00:00,198.0,7.39,225.0,10.13,12.41,47.59359,-54.27349
